Yatton Keynell, United Kingdom

6:51 AM GMT on March 19, 2019 (GMT +0000)
Yatton Keynell

Weather History for 03740 - July, 2002

Change the Weather History Date:

Sunday, July 28, 2002

  Actual Average Record
Temperature  
Mean Temperature 66 °F -  
Max Temperature 75 °F 68 °F - ()
Min Temperature 57 °F 53 °F - ()
Cooling Degree Days 1    
Growing Degree Days 16 (Base 50)    
Moisture  
Dew Point 57 °F    
Average Humidity 73    
Maximum Humidity 94    
Minimum Humidity 53    
Precipitation  
Precipitation 0.00 in 0.08 in - ()
Sea Level Pressure  
Sea Level Pressure 30.07 in    
Wind  
Wind Speed 5 mph ()    
Max Wind Speed 9 mph    
Max Gust Speed -    
Visibility 6.0 miles    
Events      
T = Trace of Precipitation, MM = Missing Value Source: Averaged Metar Reports

Daily Weather History Graph

Daily Weather History Graph

Search for Another Location

Airport or City:

Astronomy

Jul. 28, 2002 Rise Set
Actual Time 5:25 AM BST 9:02 PM BST
Civil Twilight 4:43 AM BST 9:43 PM BST
Nautical Twilight 3:46 AM BST 10:40 PM BST
Astronomical Twilight 2:19 AM BST 12:04 AM BST
Moon 11:10 PM BST (7/28) 9:34 AM BST (7/28)
Length of Visible Light 17h 00m
Length of Day
15h 37m
Waning Gibbous, 84% of the Moon is Illuminated
Jul 28
Waning Gibbous
Aug 1
Last Quarter
Aug 8
New
Aug 15
First Quarter
Aug 22
Full

Hourly Weather History & Observations

Time (BST) Temp. Dew Point Humidity Pressure Visibility Wind Dir Wind Speed Gust Speed Precip Events Conditions
12:50 AM 59.0 °F 57.2 °F 94% 30.04 in 6.2 mi SW 4.6 mph - N/A   Mostly Cloudy
1:50 AM 59.0 °F 57.2 °F 94% 30.04 in 6.2 mi SW 5.8 mph - N/A   Mostly Cloudy
2:50 AM 59.0 °F 57.2 °F 94% 30.04 in 6.2 mi SSW 4.6 mph - N/A   Mostly Cloudy
3:50 AM 59.0 °F 55.4 °F 88% 30.04 in 6.2 mi South 3.5 mph - N/A   Scattered Clouds
4:50 AM 57.2 °F 55.4 °F 94% 30.04 in 3.7 mi South 3.5 mph - N/A   Haze
5:50 AM 57.2 °F 55.4 °F 94% 30.06 in 4.3 mi South 3.5 mph - N/A   Haze
6:50 AM 59.0 °F 57.2 °F 94% 30.06 in 6.2 mi SSW 3.5 mph - N/A   Mostly Cloudy
7:50 AM 60.8 °F 55.4 °F 82% 30.06 in 6.2 mi West 6.9 mph - N/A   Mostly Cloudy
8:50 AM 62.6 °F 55.4 °F 77% 30.06 in 6.2 mi WSW 4.6 mph - N/A   Mostly Cloudy
9:50 AM 64.4 °F 53.6 °F 68% 30.06 in 6.2 mi West 3.5 mph - N/A   Mostly Cloudy
10:50 AM 66.2 °F 55.4 °F 68% 30.06 in 6.2 mi WSW 3.5 mph - N/A   Mostly Cloudy
11:50 AM 69.8 °F 55.4 °F 60% 30.06 in 6.2 mi SW 5.8 mph - N/A   Scattered Clouds
12:50 PM 71.6 °F 57.2 °F 60% 30.06 in 6.2 mi SW 6.9 mph - N/A   Scattered Clouds
1:50 PM 73.4 °F 57.2 °F 57% 30.09 in 6.2 mi WSW 6.9 mph - N/A   Scattered Clouds
2:50 PM 75.2 °F 57.2 °F 53% 30.06 in 6.2 mi WSW 9.2 mph - N/A   Partly Cloudy
3:50 PM 75.2 °F 59.0 °F 57% 30.06 in 6.2 mi WSW 8.1 mph - N/A   Partly Cloudy
4:50 PM 75.2 °F 59.0 °F 57% 30.06 in 6.2 mi West 9.2 mph - N/A   Partly Cloudy
5:50 PM 75.2 °F 57.2 °F 53% 30.06 in 6.2 mi West 9.2 mph - N/A   Partly Cloudy
6:50 PM 75.2 °F 57.2 °F 53% 30.06 in 6.2 mi West 5.8 mph - N/A   Partly Cloudy
7:50 PM 71.6 °F 55.4 °F 57% 30.09 in - West 6.9 mph - N/A   Clear
8:50 PM 68.0 °F 57.2 °F 68% 30.09 in - WNW 3.5 mph - N/A   Clear
9:50 PM 66.2 °F 57.2 °F 73% 30.12 in - West 5.8 mph - N/A   Clear
10:50 PM 64.4 °F 57.2 °F 77% 30.12 in - West 8.1 mph - N/A   Clear
11:50 PM 64.4 °F 57.2 °F 77% 30.12 in - West 9.2 mph - N/A   Clear